Regional Weather Roundup
Issued by NWS Charleston, WV

Home | Current Version | Previous Version | Text Only | Print | Product List | Glossary Off
Versions: 1 2 3 4 5 6 7 8 9 10 11 12 13 14 15 16 17 18 19 20 21 22 23 24 25 26 27 28 29 30 31 32 33 34 35 36 37 38 39 40 41 42 43 44 45 46 47 48 49 50

000
ASUS41 KRLX 290610
RWRRLX
West Virginia Regional Weather Roundup
National Weather Service Charleston WV
200 AM EDT WED MAR 29 2017

Note: "fair" indicates few or no clouds below 12,000 feet with no
significant weather and/or obstructions to visibility.

WVZ003-290700-
Northern Panhandle of West Virginia

CITY           SKY/WX    TMP DP  RH WIND       PRES   REMARKS
WHEELING       CLOUDY    45  40  82 N9        30.13R
$$

WVZ009-290700-
Northwest West Virginia

CITY           SKY/WX    TMP DP  RH WIND       PRES   REMARKS
PARKERSBURG    CLOUDY    48  41  76 N8        30.15S
$$

WVZ006-290700-
Western West Virginia

CITY           SKY/WX    TMP DP  RH WIND       PRES   REMARKS
HUNTINGTON     CLOUDY    55  48  77 N7        30.10S
$$

WVZ015-290700-
West Central West Virginia

CITY           SKY/WX    TMP DP  RH WIND       PRES   REMARKS
CHARLESTON     CLOUDY    56  45  66 N6        30.09S
$$

WVZ022-031-290700-
North Central West Virginia

CITY           SKY/WX    TMP DP  RH WIND       PRES   REMARKS
CLARKSBURG     CLOUDY    51  46  83 N9        30.09R
MORGANTOWN     CLOUDY    49  42  77 N9        30.11R
$$

WVZ025-035-042-045-290700-
Southern West Virginia

CITY           SKY/WX    TMP DP  RH WIND       PRES   REMARKS
BECKLEY        CLOUDY    51  49  92 N7        30.09R
LOGAN          CLOUDY    55  52  88 CALM      30.09S
BLUEFIELD      CLOUDY    51  50  96 NW5       30.09S
LEWISBURG      PTCLDY    54  49  83 CALM      30.06S
$$

WVZ047-290700-
Northern Mountains of West Virginia

CITY           SKY/WX    TMP DP  RH WIND       PRES   REMARKS
ELKINS         CLOUDY    52  47  83 NW8       30.07S
$$

WVZ052-290700-
Eastern Panhandle of West Virginia

CITY           SKY/WX    TMP DP  RH WIND       PRES   REMARKS
MARTINSBURG    CLOUDY    58  50  75 N3        30.00R
PETERSBURG     CLOUDY    58  50  74 N5        30.04F
$$



USA.gov is the U.S. government's official web portal to all federal, state and local government web resources and services.